When you browse on this site, cookies collect data to enhance your experience and personalize the content and advertising you see.
Visit our Privacy Policy to learn more. By continuing to use the site, you agree to this use of cookies and data.
  • en France
  • Liste des pays
  • À 7 jours
  • Température de l'eau
  • Carte météo
  • Widgets météo
  • user-avatar
    Se connecter

    Météo par heure à Carlisle

    Ce jour, 13 Décembre, Vendredi

    Heure Température Précipitation Vent Pression Humidité
    00:00 +4°C° 0.1 mm 2 m/s 724 mmHg 97%
    01:00 +4°C° 0 mm 2 m/s 724 mmHg 96%
    02:00 +3°C° 0 mm 3 m/s 723 mmHg 95%
    03:00 +3°C° 0 mm 3 m/s 723 mmHg 95%
    04:00 +3°C° 0 mm 3 m/s 724 mmHg 94%
    05:00 +3°C° 0 mm 4 m/s 724 mmHg 94%
    06:00 +3°C° 0 mm 4 m/s 724 mmHg 93%
    07:00 +3°C° 0 mm 4 m/s 725 mmHg 93%
    08:00 +3°C° 0 mm 4 m/s 725 mmHg 93%
    09:00 +3°C° 0 mm 4 m/s 726 mmHg 92%
    10:00 +3°C° 0 mm 4 m/s 726 mmHg 91%
    11:00 +3°C° 0 mm 5 m/s 727 mmHg 89%
    12:00 +5°C° 0 mm 5 m/s 727 mmHg 87%
    13:00 +5°C° 0 mm 5 m/s 727 mmHg 88%
    14:00 +4°C° 0 mm 6 m/s 728 mmHg 88%
    15:00 +3°C° 0 mm 6 m/s 728 mmHg 88%
    16:00 +3°C° 0 mm 6 m/s 729 mmHg 89%
    17:00 +3°C° 0 mm 5 m/s 729 mmHg 90%
    18:00 +3°C° 0 mm 5 m/s 729 mmHg 91%
    19:00 +3°C° 0.1 mm 5 m/s 729 mmHg 90%
    20:00 +3°C° 0.1 mm 6 m/s 729 mmHg 89%
    21:00 +3°C° 0.1 mm 7 m/s 730 mmHg 88%
    22:00 +3°C° 0.1 mm 7 m/s 729 mmHg 88%
    23:00 +2°C° 0.1 mm 8 m/s 729 mmHg 89%

    Demain, 14 Décembre, Samedi

    Heure Température Précipitation Vent Pression Humidité
    00:00 +2°C° 0.1 mm 8 m/s 729 mmHg 89%
    01:00 +1°C° 0.2 mm 8 m/s 729 mmHg 87%
    02:00 +1°C° 0.2 mm 8 m/s 729 mmHg 85%
    03:00 +1°C° 0.2 mm 8 m/s 728 mmHg 83%
    04:00 +1°C° 0.3 mm 9 m/s 729 mmHg 83%
    05:00 +1°C° 0.3 mm 9 m/s 729 mmHg 83%
    06:00 +1°C° 0.3 mm 10 m/s 729 mmHg 82%
    07:00 +1°C° 0.2 mm 10 m/s 729 mmHg 80%
    08:00 +1°C° 0.2 mm 10 m/s 730 mmHg 77%
    09:00 -1°C° 0.2 mm 11 m/s 730 mmHg 75%
    10:00 -1°C° 0.1 mm 11 m/s 730 mmHg 73%
    11:00 +1°C° 0.1 mm 11 m/s 731 mmHg 71%
    12:00 0°C° 0.1 mm 12 m/s 731 mmHg 69%
    13:00 -1°C° 0.2 mm 12 m/s 731 mmHg 75%
    14:00 -1°C° 0.2 mm 12 m/s 732 mmHg 81%
    15:00 -1°C° 0.2 mm 12 m/s 732 mmHg 88%
    16:00 0°C° 0.1 mm 10 m/s 733 mmHg 83%
    17:00 0°C° 0.1 mm 8 m/s 733 mmHg 78%
    18:00 -1°C° 0.1 mm 7 m/s 733 mmHg 74%
    19:00 -1°C° 0 mm 6 m/s 733 mmHg 76%
    20:00 0°C° 0 mm 5 m/s 733 mmHg 79%
    21:00 0°C° 0 mm 4 m/s 733 mmHg 82%
    22:00 +1°C° 0.2 mm 3 m/s 733 mmHg 85%
    23:00 0°C° 0.2 mm 3 m/s 733 mmHg 88%

    Après-demain, 15 Décembre, Dimanche

    Heure Température Précipitation Vent Pression Humidité
    00:00 0°C° 0.2 mm 3 m/s 733 mmHg 91%
    01:00 0°C° 0.3 mm 3 m/s 733 mmHg 90%
    02:00 -1°C° 0.3 mm 4 m/s 734 mmHg 89%
    03:00 -1°C° 0.3 mm 4 m/s 735 mmHg 87%
    04:00 -1°C° 0 mm 4 m/s 735 mmHg 85%
    05:00 -1°C° 0 mm 4 m/s 736 mmHg 82%
    06:00 -1°C° 0 mm 5 m/s 736 mmHg 79%
    07:00 0°C° 0.7 mm 5 m/s 736 mmHg 85%
    08:00 0°C° 0.7 mm 5 m/s 736 mmHg 91%
    09:00 -1°C° 0.7 mm 6 m/s 736 mmHg 96%
    10:00 +1°C° 0.7 mm 6 m/s 737 mmHg 94%
    11:00 +1°C° 0.7 mm 6 m/s 737 mmHg 91%
    12:00 +2°C° 0.7 mm 6 m/s 737 mmHg 88%
    13:00 +2°C° 0.3 mm 6 m/s 738 mmHg 87%
    14:00 +2°C° 0.3 mm 6 m/s 738 mmHg 85%
    15:00 +2°C° 0.3 mm 5 m/s 738 mmHg 84%
    16:00 +1°C° 0.1 mm 5 m/s 738 mmHg 85%
    17:00 +1°C° 0.1 mm 4 m/s 738 mmHg 85%
    18:00 0°C° 0.1 mm 4 m/s 738 mmHg 86%
    19:00 0°C° 0 mm 4 m/s 739 mmHg 88%
    20:00 0°C° 0 mm 4 m/s 739 mmHg 90%
    21:00 0°C° 0 mm 4 m/s 740 mmHg 93%
    22:00 0°C° 0 mm 4 m/s 740 mmHg 93%
    23:00 0°C° 0 mm 4 m/s 740 mmHg 93%

    16 Décembre, Lundi

    Heure Température Précipitation Vent Pression Humidité
    00:00 +1°C° 0 mm 3 m/s 740 mmHg 94%
    01:00 +1°C° 0.2 mm 3 m/s 740 mmHg 93%
    02:00 +1°C° 0.2 mm 3 m/s 739 mmHg 93%
    03:00 +1°C° 0.2 mm 3 m/s 739 mmHg 93%
    04:00 +1°C° 0.3 mm 3 m/s 739 mmHg 94%
    05:00 +2°C° 0.3 mm 3 m/s 739 mmHg 95%
    06:00 +1°C° 0.3 mm 4 m/s 739 mmHg 96%
    07:00 +1°C° 0.2 mm 4 m/s 740 mmHg 95%
    08:00 +1°C° 0.2 mm 4 m/s 740 mmHg 94%
    09:00 +1°C° 0.2 mm 5 m/s 741 mmHg 93%
    10:00 +2°C° 0.2 mm 5 m/s 741 mmHg 92%
    11:00 +2°C° 0.2 mm 6 m/s 742 mmHg 91%
    12:00 +2°C° 0.2 mm 7 m/s 743 mmHg 90%
    13:00 +2°C° 0.1 mm 6 m/s 743 mmHg 91%
    14:00 +2°C° 0.1 mm 5 m/s 744 mmHg 91%
    15:00 +3°C° 0.1 mm 4 m/s 745 mmHg 91%
    16:00 +2°C° 0 mm 3 m/s 745 mmHg 90%
    17:00 +1°C° 0 mm 3 m/s 746 mmHg 90%
    18:00 +2°C° 0 mm 2 m/s 746 mmHg 89%
    19:00 +2°C° 0 mm 2 m/s 747 mmHg 89%
    20:00 +2°C° 0 mm 2 m/s 747 mmHg 89%
    21:00 +2°C° 0 mm 2 m/s 748 mmHg 89%
    22:00 +2°C° 0 mm 2 m/s 748 mmHg 90%
    23:00 +2°C° 0 mm 2 m/s 748 mmHg 90%

    17 Décembre, Mardi

    Heure Température Précipitation Vent Pression Humidité
    00:00 +2°C° 0 mm 2 m/s 748 mmHg 90%
    01:00 +1°C° 0 mm 2 m/s 748 mmHg 91%
    02:00 +1°C° 0 mm 2 m/s 748 mmHg 91%
    03:00 +1°C° 0 mm 2 m/s 748 mmHg 92%
    04:00 +1°C° 0 mm 2 m/s 748 mmHg 92%
    05:00 +1°C° 0 mm 2 m/s 748 mmHg 91%
    06:00 +1°C° 0 mm 2 m/s 748 mmHg 91%
    07:00 +1°C° 0 mm 2 m/s 749 mmHg 90%
    08:00 +1°C° 0 mm 2 m/s 749 mmHg 90%
    09:00 +1°C° 0 mm 2 m/s 749 mmHg 89%
    10:00 +2°C° 0 mm 2 m/s 749 mmHg 88%
    11:00 +3°C° 0 mm 2 m/s 750 mmHg 87%
    12:00 +4°C° 0 mm 2 m/s 750 mmHg 86%
    13:00 +4°C° 0 mm 1 m/s 750 mmHg 87%
    14:00 +4°C° 0 mm 1 m/s 750 mmHg 89%
    15:00 +4°C° 0 mm 1 m/s 751 mmHg 90%
    16:00 +4°C° 0 mm 1 m/s 751 mmHg 91%
    17:00 +3°C° 0 mm 1 m/s 752 mmHg 91%
    18:00 +3°C° 0 mm 1 m/s 752 mmHg 92%
    19:00 +3°C° 0 mm 1 m/s 753 mmHg 92%
    20:00 +3°C° 0 mm 1 m/s 753 mmHg 92%
    21:00 +3°C° 0 mm 1 m/s 754 mmHg 93%
    22:00 +3°C° 0 mm 1 m/s 755 mmHg 93%
    23:00 +2°C° 0 mm 2 m/s 755 mmHg 93%

    18 Décembre, Mercredi

    Heure Température Précipitation Vent Pression Humidité
    00:00 +3°C° 0 mm 2 m/s 756 mmHg 93%
    01:00 +2°C° 0 mm 2 m/s 756 mmHg 93%
    02:00 +2°C° 0 mm 2 m/s 756 mmHg 93%
    03:00 +2°C° 0 mm 2 m/s 756 mmHg 92%
    04:00 +2°C° 0 mm 2 m/s 757 mmHg 92%
    05:00 +2°C° 0 mm 2 m/s 757 mmHg 93%
    06:00 +1°C° 0 mm 3 m/s 757 mmHg 93%
    07:00 +2°C° 0 mm 2 m/s 757 mmHg 92%
    08:00 +2°C° 0 mm 2 m/s 757 mmHg 92%
    09:00 +2°C° 0 mm 2 m/s 758 mmHg 91%
    10:00 +3°C° 0 mm 2 m/s 758 mmHg 90%
    11:00 +4°C° 0 mm 2 m/s 758 mmHg 89%
    12:00 +4°C° 0 mm 2 m/s 758 mmHg 87%
    13:00 +4°C° 0 mm 2 m/s 758 mmHg 89%
    14:00 +4°C° 0 mm 2 m/s 757 mmHg 90%
    15:00 +4°C° 0 mm 2 m/s 757 mmHg 91%
    16:00 +2°C° 0 mm 3 m/s 757 mmHg 92%
    17:00 +2°C° 0 mm 3 m/s 757 mmHg 92%
    18:00 +1°C° 0 mm 3 m/s 757 mmHg 92%
    19:00 +1°C° 0 mm 3 m/s 757 mmHg 91%
    20:00 +1°C° 0 mm 3 m/s 757 mmHg 90%
    21:00 +1°C° 0 mm 3 m/s 757 mmHg 89%
    22:00 +1°C° 0 mm 3 m/s 757 mmHg 89%
    23:00 +1°C° 0 mm 3 m/s 756 mmHg 88%
    Voir plus